Вернуться в каталог

COSMOS 1085

АктивенВоенныеLEO
NORAD 11300·PAYLOAD·🇷🇺 Russia

Запущен Mar 15, 1979 с Plesetsk Cosmodrome

Loading…

Ближайшие Пролёты (ближайшие 24 часа)

TLE

СвежийSource: Space-Track

Эпоха: Sep 14, 2026, 22:24 UTC

1 11300U 79024E   26257.93373016 -.00000026  00000-0 -72314-4 0  9992
2 11300  74.0320  60.1349 0024893 328.5642 105.4389 12.45294877159466

Отслеживайте COSMOS 1085 в реальном времени с AllMySat

Download on the App Store